Погода в Авазбакеевой

Россия / Тюменская область     56°55′15″N   66°33′56″E
темп.,
°C
ветер,
м/с
пор.,
м/с
влажн.,
%
обл.,
%
осадки,
мм/ч
давл.,
гПа
погр.,
м
13 апреля, вт
вт1323:00+4ссз22813 0.1 103732
02:00+3ссз11805 0.0 103810
05:00+2сз22860 0.0 103920
08:00+5зсз23740 0.0 1040170
11:00+10зсз35525 0.0 1040863
14:00+13з45396 0.0 10391192
17:00+13зюз46455 0.0 10371123
20:00+9юз39696 0.0 1036192
14 апреля, ср
ср1423:00+7юз4117937 0.0 1035248
02:00+7юз41389100 0.0 1033373
05:00+7юз51390100 0.0 1032408
08:00+8зюз5128754 0.0 1031424
11:00+14зюз586419 0.0 1029686
14:00+17з585555 0.0 10281121
17:00+18зсз475670 0.0 10271260
20:00+13з22745 0.0 102736
15 апреля, чт
чт1523:00+10зюз368669 0.0 1026103
02:00+8з39907 0.0 1026172
05:00+7з36905 0.0 1025111
08:00+10зюз38765 0.0 1024253
11:00+16зюз475358 0.0 1023818
14:00+19зюз57425 0.0 10211356
17:00+19зюз58525 0.0 10191482
20:00+15юз410735 0.0 1017226
16 апреля, пт
пт1623:00
02:00+9з2789100 0.0 1015124
05:00+8сз2387100 0.0 101561
08:00+8ссв4884100 0.0 1016554
11:00+5ссв5988100 0.3 1018607
14:00+5ссв4888100 0.9 1018736
17:00+6св4763100 1.4 10191267
20:00+4св5970100 0.0 1020855
17 апреля, сб
сб1723:00+1св41093100 1.9 1018698
02:00−1ссв387686 0.0 1020263
05:00−2св37735 0.0 1021311
08:000всв34575 0.0 1021589
11:00+3св224288 0.0 10191423
14:00+5ссз1137100 0.0 10171748
17:00+4зюз1135100 0.0 10161788
20:00+2вюв225039 0.0 101422